Location: Hamayl? Da??
(36.7028°N, 30.1716°E)
Time: 05:54:08
(UTC+00:00)

Resurs 01 Rocket - Pass Details

Date: 04 August 2024
Orbit: 630 x 639 km, 97.8° (Epoch: 10 September)

Event Time Altitude Azimuth Distance (km) Brightness Sun altitude
Rises 17:22:44 0° 150° (SSE) 2,914 4.5 -4.6°
Reaches altitude 10° 17:25:00 10° 143° (SE) 2,012 3.6 -5.0°
Maximum altitude 17:29:07 42° 73° (ENE) 913 2.1 -5.7°
Drops below altitude 10° 17:33:17 10° 3° (N) 2,031 4.5 -6.5°
Sets 17:35:35 0° 356° (N) 2,945 5.5 -6.9°
